[[{"header":{"parameterUnit":"m.s-1","parameterCategory":1,"la1":30.2992,"la2":30.254,"lo1":-89.0895,"lo2":-89.0443,"dy":0.0025,"dx":0.0025,"nx":19,"ny":19,"refTime":"2026-04-11T09:00:00:Z","depth":0,"parameterNumber":2,"parameterNumberName":"U-component_of_WINDS"},"data":[0,0,0,-2.2198,-2.22,-2.226,-2.226,-2.236,-2.2361,0,0,0,0,0,0,0,0,0,0,0,-2.2195,-2.2196,-2.2198,-2.22,-2.226,-2.226,-2.236,-2.2361,0,0,0,0,0,0,0,0,0,0,0,-2.2194,-2.2196,-2.2197,-2.22,-2.226,-2.226,-2.236,-2.2306,0,0,0,0,0,0,0,0,0,0,-2.2244,-2.2254,-2.2195,-2.2197,-2.2201,-2.226,-2.226,-2.2303,-2.2309,-2.2343,0,-2.2377,0,-2.2371,-2.2369,-2.237,0,0,0,-2.2189,-2.2249,-2.2253,-2.2197,-2.2202,-2.226,-2.223,-2.2306,-2.2314,-2.2351,-2.2378,-2.2381,-2.2372,-2.237,-2.2371,-2.26,-2.2601,0,0,-2.2186,-2.2213,-2.2248,-2.2258,-2.2251,-2.2228,-2.2232,-2.231,-2.2341,-2.2378,-2.2383,-2.2374,-2.2371,-2.2372,-2.2598,-2.26,0,0,0,-2.2184,-2.2212,-2.2212,-2.2255,-2.2264,-2.223,-2.2235,-2.2337,-2.2335,-2.2384,-2.2375,-2.2372,-2.2373,-2.2597,-2.2599,-2.2705,0,0,0,-2.2181,-2.221,-2.2211,-2.2229,-2.2263,-2.2302,-2.2261,-2.233,-2.2338,-2.2375,-2.2372,-2.2374,-2.2595,-2.2598,-2.2698,-2.2751,0,0,0,-2.2186,-2.221,-2.2224,-2.223,-2.2257,-2.23,-2.2302,-2.2331,-2.2333,-2.237,-2.2375,-2.2594,-2.2597,-2.2692,-2.2741,-2.282,0,0,0,-2.2199,-2.2317,-2.2226,-2.2354,-2.2257,-2.2364,-2.2301,-2.2379,-2.2423,-2.2372,-2.2595,-2.2599,-2.269,-2.2735,-2.2814,-2.2893,-2.2928,0,0,-2.2363,-2.2337,-2.241,-2.2331,-2.2462,-2.2353,-2.2498,-2.2512,-2.249,-2.2564,-2.257,-2.27,-2.274,-2.2819,-2.3112,-2.314,0,0,0,-2.2472,-2.2525,-2.2553,-2.2597,-2.261,-2.2626,-2.2614,-2.2619,-2.2681,-2.2534,-2.2748,-2.2771,-2.2816,-2.2853,-2.2877,-2.2914,-2.2616,-2.2616,-2.2616,-2.2745,-2.271,-2.2828,-2.2801,-2.2844,-2.283,-2.2862,-2.2866,-2.2818,-2.2869,-2.2892,-2.3074,-2.3118,-2.3136,-2.3175,-2.2929,-2.293,-2.293,-2.293,-2.2983,-2.3053,-2.2986,-2.3078,-2.304,-2.3116,-2.3108,-2.3071,-2.3137,-2.3054,-2.3092,-2.3007,-2.3168,-2.32,-2.2938,-2.2937,-2.2936,-2.2935,-2.2934,-2.3159,-2.3187,-2.319,-2.3249,-2.3298,-2.3265,-2.3331,-2.3293,-2.3259,-2.3296,-2.3316,-2.3315,-2.3309,-2.3308,-2.3309,-2.3309,-2.331,-2.331,-2.3311,-2.3342,-2.3342,-2.3403,-2.3426,-2.3449,-2.3473,-2.346,-2.3481,-2.3495,-2.3462,-2.3462,-2.3411,-2.3189,-2.3135,-2.332,-2.3319,-2.3317,-2.3316,-2.3316,-2.36,-2.3535,-2.3629,-2.3652,-2.3676,-2.3727,-2.3677,-2.3723,-2.3735,-2.3768,-2.3708,-2.3549,-2.3521,-2.3501,-2.3457,-2.3714,-2.3714,-2.3714,-2.3714,-2.3751,-2.3732,-2.3819,-2.3857,-2.3891,-2.3855,-2.3962,-2.3952,-2.3932,-2.3937,-2.3893,-2.383,-2.3812,-2.3794,-2.3769,-2.3727,-2.4047,-2.4047,-2.4047,-2.3908,-2.389,-2.3989,-2.3968,-2.3984,-2.3998,-2.4097,-2.4144,-2.4107,-2.406,-2.394,-2.3926,-2.3823,-2.3792,-2.3745,-2.3706,-2.3628,0,0]},{"header":{"parameterUnit":"m.s-1","parameterCategory":1,"la1":30.2992,"la2":30.254,"lo1":-89.0895,"lo2":-89.0443,"dy":0.0025,"dx":0.0025,"nx":19,"ny":19,"refTime":"2026-04-11T09:00:00:Z","depth":0,"parameterNumber":3,"parameterNumberName":"V-component_of_WINDS"},"data":[0,0,0,-1.7665,-1.7667,-1.7774,-1.7775,-1.7894,-1.7895,0,0,0,0,0,0,0,0,0,0,0,-1.7625,-1.7625,-1.7665,-1.7668,-1.7774,-1.7775,-1.7894,-1.7895,0,0,0,0,0,0,0,0,0,0,0,-1.7624,-1.7625,-1.7626,-1.7668,-1.7774,-1.7775,-1.7894,-1.7819,0,0,0,0,0,0,0,0,0,0,-1.7718,-1.7672,-1.7625,-1.7626,-1.7669,-1.7774,-1.7775,-1.7816,-1.7824,-1.7839,0,-1.7851,0,-1.7875,-1.7902,-1.7903,0,0,0,-1.7674,-1.7665,-1.7703,-1.7626,-1.7669,-1.7774,-1.7728,-1.7821,-1.783,-1.785,-1.7853,-1.7858,-1.7877,-1.7903,-1.7904,-1.7972,-1.7972,0,0,-1.7668,-1.7639,-1.7696,-1.7708,-1.7692,-1.7725,-1.7731,-1.7826,-1.7828,-1.7854,-1.7861,-1.7879,-1.7904,-1.7905,-1.7972,-1.7972,0,0,0,-1.7647,-1.7634,-1.767,-1.7703,-1.7723,-1.7727,-1.7735,-1.7824,-1.7838,-1.7863,-1.7881,-1.7904,-1.7906,-1.7972,-1.7972,-1.7944,0,0,0,-1.7644,-1.7622,-1.7667,-1.7649,-1.7721,-1.7775,-1.773,-1.7831,-1.7843,-1.788,-1.7904,-1.7907,-1.7972,-1.7972,-1.7945,-1.7936,0,0,0,-1.7621,-1.7619,-1.7632,-1.7648,-1.7693,-1.7774,-1.7794,-1.7834,-1.7853,-1.7903,-1.7907,-1.7972,-1.7972,-1.7946,-1.7937,-1.7945,0,0,0,-1.7588,-1.7605,-1.7631,-1.7657,-1.7691,-1.7756,-1.7794,-1.7843,-1.7882,-1.7905,-1.7972,-1.7972,-1.7946,-1.7938,-1.7946,-1.7946,-1.7944,0,0,-1.7593,-1.7605,-1.7623,-1.7649,-1.7701,-1.7742,-1.7791,-1.7854,-1.7886,-1.7941,-1.7943,-1.7945,-1.7937,-1.7945,-1.7941,-1.7939,0,0,0,-1.7614,-1.7627,-1.7647,-1.7684,-1.7733,-1.7774,-1.7834,-1.7857,-1.7906,-1.7908,-1.7951,-1.7947,-1.7953,-1.7955,-1.7953,-1.796,-1.7972,-1.7972,-1.7972,-1.7579,-1.7619,-1.7651,-1.7704,-1.7738,-1.78,-1.7831,-1.7873,-1.7903,-1.7912,-1.7928,-1.7921,-1.7922,-1.7921,-1.7928,-1.7932,-1.7932,-1.7932,-1.7932,-1.7591,-1.7615,-1.7654,-1.7699,-1.7741,-1.7779,-1.7838,-1.7858,-1.7899,-1.7912,-1.7919,-1.793,-1.7918,-1.7926,-1.793,-1.7931,-1.7931,-1.7931,-1.7931,-1.7572,-1.7591,-1.762,-1.7676,-1.7715,-1.7767,-1.7805,-1.7841,-1.7876,-1.7883,-1.7904,-1.7905,-1.791,-1.7891,-1.7891,-1.7891,-1.7891,-1.7891,-1.789,-1.7542,-1.7575,-1.7603,-1.7657,-1.7685,-1.7726,-1.7787,-1.7816,-1.7856,-1.788,-1.788,-1.7908,-1.7909,-1.7909,-1.789,-1.789,-1.789,-1.789,-1.789,-1.7538,-1.7545,-1.7588,-1.7616,-1.7682,-1.7718,-1.7764,-1.7818,-1.7847,-1.7864,-1.7891,-1.7886,-1.79,-1.7902,-1.7902,-1.7883,-1.7883,-1.7883,-1.7883,-1.7523,-1.7534,-1.7586,-1.7628,-1.7673,-1.7719,-1.7766,-1.7813,-1.7863,-1.7883,-1.7891,-1.7894,-1.7894,-1.7908,-1.791,-1.791,-1.7894,-1.7894,-1.7894,-1.7523,-1.754,-1.7572,-1.7622,-1.7676,-1.7722,-1.7766,-1.7813,-1.7871,-1.7895,-1.79,-1.7899,-1.7904,-1.7904,-1.7928,-1.7929,-1.7931,0,0]}]]